Flag for Poland Weather past 2 weeks in Tarnów, Poland

Now
38 °F

Overcast.


Feels Like: 34 °F
Forecast: 30 / 46 °F
Wind: 5 mph from East

Location: Tarnow

Current Time: Oct 24, 2014 at 3:51:29 PM

Latest Report: Oct 24, 2014 at 3:00 PM


Visibility: 16 mi

Pressure: 30.33 "Hg

Humidity: 70%

Dew point: 29 °F

Location of TarnówLocation

Historic Weather in Tarnów — Graph

°F

Tarnów temperature yesterday

Maximum temperature yesterday: 47 °F (at 8:00 AM)
Minimum temperature yesterday: 38 °F (at 11:00 PM)
Average temperature yesterday: 42 °F

Past Weeks' High & Low Weather Summary

 TemperatureHumidityPressure
High75 °F (Oct 11, 2:00 PM)98% (Oct 15, 9:00 AM)30.38 "Hg (Oct 15, 9:00 AM)
Low34 °F (Oct 24, 8:00 AM)53% (Oct 9, 2:00 PM)29.57 "Hg (Oct 22, 6:00 AM)
Average55 °F84%29.94 "Hg
* Reported Oct 9 2:00 PM — Oct 24 2:00 PM, Tarnów, Weather by CustomWeather, © 2014

Note: Actual official high and low records may vary slightly from our data, if they occured in-between our weather recording intervals... More about our weather records

Advertising

Tarnów weather history for previous 24 hours

 ConditionsComfort  
Time TempWeatherWind HumidityBarometerVisibility
2:00 PM
Oct 24
38 °FOvercast.5 mph68%30.34 "Hg16 mi
1:00 PM38 °FOvercast.3 mph68%30.34 "Hg12 mi
12:00 PM37 °FOvercast.3 mph68%30.35 "Hg16 mi
11:00 AM36 °FOvercast.2 mph72%30.34 "Hg12 mi
10:00 AM35 °FOvercast.3 mph78%30.33 "Hg12 mi
9:00 AM34 °FOvercast.2 mph83%30.32 "Hg12 mi
8:00 AM34 °FOvercast.5 mph85%30.31 "Hg9 mi
7:00 AM34 °FFog.2 mph88%30.29 "Hg6 mi
6:00 AM34 °FOvercast.3 mph87%30.27 "Hg7 mi
5:00 AM35 °FOvercast.3 mph88%30.26 "Hg8 mi
4:00 AM35 °FOvercast.3 mph89%30.26 "Hg7 mi
3:00 AM35 °FOvercast.3 mph90%30.25 "Hg7 mi
2:00 AM35 °FFog.3 mph91%30.24 "Hg6 mi
1:00 AM36 °FFog.3 mph92%30.22 "Hg3 mi
12:00 AM37 °FLow clouds.5 mph96%30.22 "Hg2 mi
11:00 PM
Oct 23
38 °FDrizzle. Low clouds.3 mph96%30.21 "Hg2 mi
10:00 PM38 °FDrizzle. Low clouds.5 mph96%30.19 "Hg2 mi
9:00 PM39 °FLow clouds.5 mph96%30.18 "Hg2 mi
8:00 PM39 °FDrizzle. Low clouds.3 mph96%30.16 "Hg2 mi
7:00 PM39 °FDrizzle. Low clouds.3 mph96%30.14 "Hg1 mi
6:00 PM39 °FDrizzle. Low clouds.5 mph96%30.12 "Hg2 mi
5:00 PM39 °FDrizzle. Low clouds.3 mph96%30.09 "Hg2 mi
4:00 PM40 °FDrizzle. Low clouds.3 mph96%30.05 "Hg2 mi
3:00 PM40 °FLow clouds.3 mph95%30.03 "Hg4 mi
Weather by CustomWeather, © 2014

See weather overviewHow to use our weather pages